TimeCDT,TemperatureF,Dew PointF,Humidity,Sea Level PressureIn,VisibilityMPH,Wind Direction,Wind SpeedMPH,Gust SpeedMPH,PrecipitationIn,Events,Conditions,WindDirDegrees,DateUTC
12:15 AM,42.8,23.0,46,30.03,10.0,NNW,12.7,21.9,N/A,,Overcast,330,2013-04-01 05:15:00
12:35 AM,42.8,24.8,49,30.03,10.0,NNW,13.8,24.2,N/A,,Overcast,340,2013-04-01 05:35:00
12:55 AM,41.0,21.2,45,30.04,10.0,NNW,11.5,18.4,N/A,,Overcast,330,2013-04-01 05:55:00
1:15 AM,39.2,21.2,49,30.05,10.0,NNW,16.1,23.0,N/A,,Overcast,330,2013-04-01 06:15:00
1:35 AM,39.2,19.4,45,30.06,10.0,NNW,11.5,20.7,N/A,,Overcast,330,2013-04-01 06:35:00
2:15 AM,39.2,19.4,45,30.07,10.0,NW,10.4,17.3,N/A,,Overcast,320,2013-04-01 07:15:00
2:35 AM,37.4,21.2,52,30.07,10.0,NW,9.2,-,N/A,,Overcast,320,2013-04-01 07:35:00
3:15 AM,37.4,21.2,52,30.08,10.0,North,13.8,17.3,N/A,,Overcast,350,2013-04-01 08:15:00
3:35 AM,37.4,21.2,52,30.08,10.0,NNW,13.8,20.7,N/A,,Overcast,340,2013-04-01 08:35:00
3:55 AM,35.6,21.2,56,30.09,10.0,NNW,11.5,19.6,N/A,,Overcast,330,2013-04-01 08:55:00
4:15 AM,35.6,21.2,56,30.10,10.0,NNW,11.5,19.6,N/A,,Overcast,330,2013-04-01 09:15:00
4:35 AM,33.8,19.4,56,30.11,10.0,North,12.7,19.6,N/A,,Mostly Cloudy,350,2013-04-01 09:35:00
4:55 AM,33.8,19.4,56,30.12,10.0,NNW,6.9,-,N/A,,Scattered Clouds,340,2013-04-01 09:55:00
5:15 AM,32.0,21.2,64,30.13,10.0,NNW,9.2,-,N/A,,Clear,330,2013-04-01 10:15:00
5:35 AM,30.2,19.4,64,30.13,10.0,NNW,9.2,-,N/A,,Clear,330,2013-04-01 10:35:00
5:55 AM,30.2,19.4,64,30.14,10.0,NNW,10.4,-,N/A,,Clear,340,2013-04-01 10:55:00
6:15 AM,30.2,19.4,64,30.15,10.0,NNW,8.1,-,N/A,,Clear,330,2013-04-01 11:15:00
6:35 AM,30.2,19.4,64,30.16,10.0,NNW,8.1,-,N/A,,Clear,330,2013-04-01 11:35:00
7:15 AM,30.2,19.4,64,30.18,10.0,NNW,9.2,-,N/A,,Clear,340,2013-04-01 12:15:00
7:35 AM,30.2,19.4,64,30.19,10.0,NNW,10.4,-,N/A,,Clear,340,2013-04-01 12:35:00
7:55 AM,30.2,19.4,64,30.20,10.0,NNW,9.2,16.1,N/A,,Clear,330,2013-04-01 12:55:00
8:15 AM,32.0,19.4,60,30.21,10.0,NNW,11.5,-,N/A,,Clear,330,2013-04-01 13:15:00
8:35 AM,32.0,19.4,60,30.21,10.0,NNW,12.7,18.4,N/A,,Clear,340,2013-04-01 13:35:00
8:55 AM,33.8,19.4,56,30.22,10.0,NW,9.2,18.4,N/A,,Clear,320,2013-04-01 13:55:00
9:15 AM,33.8,19.4,56,30.22,10.0,NNW,12.7,-,N/A,,Clear,330,2013-04-01 14:15:00
9:35 AM,35.6,19.4,52,30.22,10.0,NW,12.7,17.3,N/A,,Clear,310,2013-04-01 14:35:00
9:55 AM,35.6,19.4,52,30.23,10.0,NNW,10.4,16.1,N/A,,Clear,340,2013-04-01 14:55:00
10:15 AM,37.4,19.4,48,30.24,10.0,NW,9.2,-,N/A,,Clear,320,2013-04-01 15:15:00
10:35 AM,37.4,19.4,48,30.23,10.0,NNW,9.2,-,N/A,,Scattered Clouds,340,2013-04-01 15:35:00
10:55 AM,37.4,17.6,45,30.23,10.0,NNW,6.9,17.3,N/A,,Scattered Clouds,340,2013-04-01 15:55:00
11:15 AM,39.2,17.6,42,30.23,10.0,NW,13.8,20.7,N/A,,Clear,310,2013-04-01 16:15:00
11:35 AM,39.2,15.8,39,30.24,10.0,NNW,10.4,18.4,N/A,,Clear,330,2013-04-01 16:35:00
11:55 AM,39.2,15.8,39,30.24,10.0,WNW,13.8,18.4,N/A,,Clear,300,2013-04-01 16:55:00
12:15 PM,41.0,14.0,33,30.24,10.0,NW,15.0,19.6,N/A,,Clear,320,2013-04-01 17:15:00
12:35 PM,42.8,15.8,34,30.23,10.0,NNW,10.4,16.1,N/A,,Clear,330,2013-04-01 17:35:00
12:55 PM,42.8,14.0,31,30.23,10.0,NNW,12.7,20.7,N/A,,Clear,330,2013-04-01 17:55:00
1:15 PM,42.8,12.2,29,30.23,10.0,NW,10.4,20.7,N/A,,Clear,320,2013-04-01 18:15:00
1:35 PM,42.8,10.4,27,30.22,10.0,NNW,15.0,18.4,N/A,,Clear,340,2013-04-01 18:35:00
1:55 PM,44.6,12.2,27,30.22,10.0,WNW,12.7,17.3,N/A,,Clear,300,2013-04-01 18:55:00
2:15 PM,44.6,6.8,21,30.22,10.0,NNW,9.2,21.9,N/A,,Clear,330,2013-04-01 19:15:00
2:35 PM,44.6,8.6,23,30.22,10.0,NNW,9.2,-,N/A,,Clear,340,2013-04-01 19:35:00
2:55 PM,44.6,3.2,18,30.21,10.0,NNW,15.0,21.9,N/A,,Clear,340,2013-04-01 19:55:00
3:15 PM,44.6,1.4,17,30.21,10.0,NNW,12.7,21.9,N/A,,Clear,340,2013-04-01 20:15:00
3:35 PM,46.4,1.4,16,30.21,10.0,NW,15.0,20.7,N/A,,Clear,310,2013-04-01 20:35:00
3:55 PM,44.6,-0.4,15,30.21,10.0,NNW,10.4,18.4,N/A,,Clear,340,2013-04-01 20:55:00
4:15 PM,46.4,-2.2,13,30.21,10.0,NW,12.7,20.7,N/A,,Clear,320,2013-04-01 21:15:00
4:35 PM,44.6,1.4,17,30.21,10.0,North,6.9,18.4,N/A,,Clear,350,2013-04-01 21:35:00
5:15 PM,44.6,-0.4,15,30.21,10.0,NNW,13.8,23.0,N/A,,Clear,340,2013-04-01 22:15:00
5:35 PM,44.6,1.4,17,30.21,10.0,NW,10.4,18.4,N/A,,Clear,320,2013-04-01 22:35:00
5:55 PM,44.6,1.4,17,30.21,10.0,NNW,12.7,17.3,N/A,,Clear,340,2013-04-01 22:55:00
6:15 PM,42.8,1.4,18,30.22,10.0,North,12.7,18.4,N/A,,Clear,360,2013-04-01 23:15:00
6:35 PM,42.8,3.2,19,30.22,10.0,NNW,12.7,-,N/A,,Clear,330,2013-04-01 23:35:00
6:55 PM,42.8,5.0,21,30.22,10.0,North,10.4,-,N/A,,Clear,350,2013-04-01 23:55:00
7:15 PM,41.0,6.8,24,30.22,10.0,NNW,6.9,-,N/A,,Clear,340,2013-04-02 00:15:00
7:35 PM,39.2,8.6,28,30.22,10.0,NNW,5.8,-,N/A,,Clear,330,2013-04-02 00:35:00
7:55 PM,37.4,10.4,33,30.22,10.0,NNW,4.6,-,N/A,,Clear,330,2013-04-02 00:55:00
8:15 PM,37.4,10.4,33,30.23,10.0,NNW,5.8,-,N/A,,Clear,330,2013-04-02 01:15:00
8:35 PM,37.4,10.4,33,30.23,10.0,NNW,4.6,-,N/A,,Clear,330,2013-04-02 01:35:00
8:55 PM,35.6,12.2,38,30.24,10.0,NNW,4.6,-,N/A,,Clear,330,2013-04-02 01:55:00
9:15 PM,35.6,14.0,41,30.24,10.0,NNW,4.6,-,N/A,,Clear,330,2013-04-02 02:15:00
9:35 PM,33.8,15.8,48,30.25,10.0,NW,3.5,-,N/A,,Clear,320,2013-04-02 02:35:00
9:55 PM,35.6,15.8,44,30.25,10.0,NNW,4.6,-,N/A,,Clear,330,2013-04-02 02:55:00
10:15 PM,33.8,15.8,48,30.26,10.0,NNW,4.6,-,N/A,,Clear,340,2013-04-02 03:15:00
10:35 PM,33.8,15.8,48,30.26,10.0,North,5.8,-,N/A,,Clear,350,2013-04-02 03:35:00
10:55 PM,33.8,15.8,48,30.26,10.0,NNW,4.6,-,N/A,,Clear,340,2013-04-02 03:55:00
11:15 PM,32.0,15.8,51,30.27,10.0,NNW,4.6,-,N/A,,Clear,340,2013-04-02 04:15:00
11:35 PM,32.0,15.8,51,30.28,10.0,NNW,3.5,-,N/A,,Clear,330,2013-04-02 04:35:00
11:55 PM,32.0,17.6,55,30.28,10.0,NNW,3.5,-,N/A,,Clear,330,2013-04-02 04:55:00